SCP
0 0 0 0 0 0 0 0 0 0 0 0 0 0 0 0 0 0 0 0 0 0 0 0 0 0 0 0 0 0 0 0 0 0 0 0 0 0 0 0 0 0 0
0 0 0 0 0 0 0 0 0 0 0 0 0 0 0 0 0 0 0 0 0 0 0 0 0 0 0 0 0 0 0 0 0 0 0 0 0 0 0 0 0 0 0
0 0 0 0 0 0 0 0 0 0 0 0 0 0 0 0 0 0 0 0 0 0 0 0 0 0 0 0 0 0 0 0 0 0 0 0 0 0 0 0 0 0 0
0 0 0 0 0 0 0 0 0 0 0 0 0 0 0 0 0 0 0 0 0 0 0 0 0 0 0 0 0 0 0 0 0 0 0 0 0 0 0 0 0 0 0
0 0 0 0 0 0 0 0 0 0 0 0 0 0 0 0 0 0 0 0 0 0 0 0 0 0 0 0 0 0 0 0 0 0 0 0 0 0 0 0 0 0 0
0 0 0 0 0 0 0 0 0 0 0 0 0 0 0 0 0 0 0 0 0 0 0 0 0 0 0 0 0 0 0 0 0 0 0 0 0 0 0 0 0 0 0
0 0 0 0 0 0 0 0 0 0 0 0 0 0 0 0 0 0 0 0 0 0 0 0 0 0 0 0 0 0 0 0 0 0 0 0 0 0 0 0 0 0 0
0 0 0 0 0 0 0 0 0 0 0 0 0 0 0 0 0 0 0 0 0 0 0 0 0 0 0 0 0 0 0 0 0 0 0 0 0 0 0 0 0 0 0
0 0 0 0 0 0 0 0 0 0 0 0 0 0 0 0 0 0 0 0 0 0 0 0 0 0 0 0 0 0 0 0 0 0 0 0 0 0 0 0 0 0 0
0 0 0 0 0 0 0 0 0 0 0 0 0 0 0 0 0 0 0 0 0 0 0 0 0 0 0 0 0 0 0 0 0 0 0 0 0 0 0 0 0 0 0
0 0 0 0 0 0 0 0 0 0 0 0 0 0 0 0 0 0 0 0 0 0 0 0 0 0 0 0 0 0 0 0 0 0 0 0 0 0 0 0 0 0 0
0 0 0 0 0 0 0 0 0 0 0 0 0 0 0 0 0 0 0 0 0 0 0 0 0 0 0 0 0 0 0 0 0 0 0 0 0 0 0 0 0 0 0
0 0 0 0 0 0 0 0 0 0 0 0 0 0 0 0 0 0 0 0 0 0 0 0 0 0 0 0 0 0 0 0 0 0 0 0 0 0 0 0 0 0 0
0 0 0 0 0 0 0 0 0 0 0 0 0 0 0 0 0 0 0 0 0 0 0 0 0 0 0 0 0 0 0 0 0 0 0 0 0 0 0 0 0 0 0
0 0 0 0 0 0 0 0 0 0 0 0 0 0 0 0 0 0 0 0 0 0 0 0 0 0 0 0 0 0 0 0 0 0 0 0 0 0 0 0 0 0 0
0 0 0 0 0 0 0 0 0 0 0 0 0 0 0 0 0 0 0 0 0 0 0 0 0 0 0 0 0 0 0 0 0 0 0 0 0 0 0 0 0 0 0
0 0 0 0 0 0 0 0 0 0 0 0 0 0 0 0 0 0 0 0 0 0 0 0 0 0 0 0 0 0 0 0 0 0 0 0 0 0 0 0 0 0 0
0 0 0 0 0 0 0 0 0 0 0 0 0 0 0 0 0 0 0 0 0 0 0 0 0 0 0 0 0 0 0 0 0 0 0 0 0 0 0 0 0 0 0
1 1 0 0 0 0 0 0 0 0 0 0 0 0 0 0 0 0 0 0 0 0 0 0 0 0 0 0 0 0 0 0 0 0 0 1 1 0 0 0 0 0 0
1 1 1 1 1 1 0 0 0 0 0 0 0 0 0 0 0 0 0 0 0 0 0 0 0 0 0 0 0 0 0 0 0 0 1 1 1 0 0 0 0 0 0
1 1 1 1 1 1 1 0 0 0 0 0 0 0 0 0 0 0 0 0 0 0 0 0 0 0 0 0 0 0 0 0 0 0 1 1 1 0 0 0 0 0 0
1 1 1 1 1 1 1 1 1 0 0 0 0 0 0 0 0 0 0 0 0 0 0 0 0 0 0 0 0 0 0 0 0 0 1 1 1 0 0 0 0 0 0
1 1 1 1 1 1 1 1 1 1 0 0 0 1 1 1 0 0 0 0 0 0 1 1 1 1 1 1 1 1 1 1 1 0 0 0 0 0 0 0 0 1 1
1 1 1 1 1 1 1 1 1 1 1 1 1 1 1 1 1 1 1 1 1 1 1 1 1 1 1 1 1 1 1 1 1 1 0 0 0 0 0 0 0 1 1
1 1 1 2 2 2 1 1 1 1 1 1 1 1 1 1 1 1 1 1 1 1 1 1 1 1 1 1 1 1 1 1 1 1 1 1 0 0 0 0 0 1 1
1 1 1 2 2 2 2 1 1 1 1 1 1 1 1 1 1 1 1 1 1 1 1 1 1 1 1 1 1 1 1 1 1 1 1 1 1 0 0 1 1 1 0
Wind_Speed
10 12 11 10 10 9 9 11 12 11 11 10 10 9 8 8 9 9 8 8 7 7 6 6 6 5 5 5 4 4 4 5 6 6 6 6 5 4 4 4 4 4 7
13 12 12 10 10 10 11 12 12 11 11 10 9 9 8 8 8 7 7 7 6 6 6 5 5 5 5 4 4 4 4 5 5 6 6 6 6 5 4 4 3 3 6
14 12 12 11 11 11 11 11 11 11 11 10 9 8 8 7 7 7 6 6 6 5 5 5 5 5 5 4 4 4 4 5 5 6 6 5 6 7 6 5 5 6 5
14 12 12 12 11 11 11 10 11 11 10 10 9 8 7 6 6 6 5 5 5 5 4 5 4 4 4 4 4 4 4 5 6 6 5 4 4 7 8 7 6 6 6
14 13 12 12 11 11 11 10 10 10 10 9 8 7 6 6 5 5 5 5 5 5 4 5 4 4 4 4 4 4 5 6 7 7 4 3 3 7 8 8 7 7 6
14 14 13 12 12 11 11 10 10 10 9 8 7 6 6 5 5 5 5 4 4 4 5 5 5 4 4 5 5 5 5 6 7 5 4 3 3 8 8 8 7 7 6
14 14 13 13 12 11 11 10 10 9 9 8 6 6 5 5 4 4 4 4 4 4 5 5 5 5 5 6 6 6 6 7 7 4 3 3 4 8 9 8 7 7 6
14 14 12 13 12 11 11 10 9 9 8 7 6 6 5 5 4 4 4 4 4 5 5 6 6 6 6 6 7 7 8 9 7 5 4 3 6 8 9 8 7 7 7
13 13 11 11 11 11 11 10 9 9 8 7 6 6 5 5 5 5 4 4 4 5 5 6 7 7 7 7 7 8 9 10 7 3 3 3 6 7 8 8 7 7 7
11 11 11 11 10 9 10 10 10 9 7 7 6 5 5 5 6 6 6 5 5 4 5 7 7 8 8 9 9 10 10 9 6 3 2 4 7 7 8 7 7 7 7
8 8 9 10 9 9 9 10 9 9 8 7 5 5 5 4 4 5 6 7 6 6 7 8 9 10 9 10 11 12 10 5 4 2 2 6 9 8 8 7 6 6 6
6 7 7 7 7 7 6 7 5 6 6 5 4 4 3 3 2 3 7 8 7 7 8 10 10 10 8 6 9 11 5 5 3 2 3 8 9 9 8 6 5 5 6
6 6 8 6 5 5 4 4 3 3 4 4 4 3 2 2 2 2 3 4 5 6 5 6 7 5 5 4 3 4 4 3 2 2 4 7 8 9 8 7 6 6 5
6 6 7 7 5 4 4 3 3 2 3 2 3 2 1 1 1 0 1 1 2 2 2 2 2 3 3 3 2 3 2 1 1 3 4 7 8 8 8 8 8 7 7
5 6 7 6 5 4 3 0 2 2 2 3 3 1 1 1 0 0 0 0 1 1 1 1 1 2 2 2 2 2 1 2 1 2 3 7 8 9 9 9 9 9 9
6 6 7 7 6 4 2 1 1 2 2 2 2 2 2 1 0 0 1 1 1 1 0 1 1 2 2 2 2 2 3 3 2 2 3 5 8 9 9 9 9 9 9
7 7 7 6 7 4 3 1 2 1 2 2 2 2 1 1 0 1 1 0 1 1 1 1 1 1 2 2 2 3 3 3 2 2 3 3 4 7 8 9 9 9 9
7 7 5 5 7 5 3 1 1 1 2 1 1 2 1 1 0 1 1 0 1 1 1 1 1 1 1 1 2 2 2 2 3 4 3 4 4 4 6 9 9 8 8
7 7 5 4 6 5 3 2 1 1 1 0 1 1 1 0 1 1 0 0 1 1 1 1 0 1 1 2 2 2 2 2 3 4 4 4 4 4 4 6 9 8 8
7 7 6 4 5 4 3 2 1 1 1 1 1 1 1 0 0 1 1 0 1 0 0 1 1 1 1 2 3 2 2 2 3 3 4 3 3 4 4 5 4 5 7
8 7 6 5 4 3 2 2 2 2 1 1 1 1 1 0 1 1 2 0 1 0 0 1 1 2 1 1 1 2 2 2 2 2 2 2 2 2 3 3 3 3 3
9 8 6 5 5 4 2 1 1 1 1 1 0 2 1 0 1 1 1 2 1 1 0 1 1 1 2 1 1 2 1 1 1 1 2 2 2 2 2 3 3 3 3
10 9 7 6 5 5 4 2 1 1 0 0 1 1 0 1 1 2 1 1 2 2 1 1 1 2 2 2 1 1 1 1 2 1 1 1 2 2 2 2 3 3 3
9 9 7 6 6 5 4 3 3 2 1 1 1 1 1 1 1 1 1 1 2 2 2 2 1 1 2 2 1 1 1 0 1 2 1 0 1 1 1 2 2 2 2
9 9 8 7 6 5 4 4 2 1 1 1 0 1 1 1 1 0 0 0 1 1 2 3 2 2 2 2 2 2 2 1 1 1 2 2 1 1 2 2 2 2 2
7 8 8 7 6 5 4 4 3 2 1 0 0 0 1 1 1 0 0 0 1 1 2 2 2 2 2 2 2 2 2 2 2 2 2 2 2 2 2 1 1 2 2
Wind_Direction
100 102 101 97 97 94 96 109 117 117 118 116 114 111 107 114 111 110 109 112 115 117 120 129 132 138 142 143 142 135 139 151 158 154 152 151 145 144 147 150 153 128 131
105 104 103 98 98 96 97 105 112 116 119 120 120 116 110 111 113 114 111 114 122 124 126 126 127 136 140 143 153 157 162 164 167 172 172 171 167 166 168 167 156 134 139
108 112 107 101 99 101 103 106 110 114 119 121 122 120 118 117 118 120 123 124 127 131 129 135 133 129 134 148 167 177 183 187 192 196 197 191 174 176 175 166 157 156 157
112 111 106 106 102 104 107 108 110 113 117 121 123 126 125 123 125 128 134 139 140 143 146 147 142 143 146 154 166 180 196 207 217 222 214 209 185 174 178 175 173 174 175
111 110 109 111 108 108 111 110 111 113 115 119 122 125 128 131 135 138 141 147 150 156 162 161 158 165 165 170 179 191 212 225 230 241 225 193 162 166 174 176 178 182 186
111 110 115 115 114 114 114 114 114 115 116 119 123 125 127 131 137 141 142 153 165 168 174 179 175 181 184 189 204 216 227 239 247 233 211 180 161 169 171 175 180 188 194
113 114 118 119 117 117 116 119 119 120 121 123 125 126 125 132 141 149 154 162 173 177 182 180 188 200 205 209 221 232 240 248 247 226 204 176 163 170 174 180 183 189 195
115 116 121 126 127 125 124 125 126 127 127 129 131 134 137 147 153 163 172 176 185 187 188 190 198 207 212 217 227 237 244 256 247 219 188 168 162 170 174 177 181 189 197
117 123 131 136 136 136 135 136 136 136 139 142 144 148 155 164 170 175 182 181 188 196 199 202 206 211 214 217 227 239 244 251 264 246 186 154 168 172 172 175 183 194 202
119 129 137 139 144 148 146 152 153 151 156 157 161 165 174 184 188 187 187 186 194 203 215 217 217 220 222 224 228 237 243 253 245 229 150 153 160 169 173 177 185 195 204
110 121 129 137 148 152 149 149 160 159 164 167 172 180 189 201 189 190 175 176 196 211 221 224 225 226 226 229 231 234 241 240 231 187 136 147 154 157 165 176 186 198 207
117 126 120 124 132 137 139 144 163 163 163 178 171 184 201 207 204 175 165 187 200 213 225 227 228 230 227 225 225 228 237 231 224 165 145 156 158 162 166 172 182 198 210
131 120 115 111 109 118 122 144 154 152 153 173 167 187 207 216 197 170 173 189 206 215 224 219 219 225 222 220 210 201 223 231 203 145 150 161 166 171 175 181 190 200 207
138 126 114 112 102 93 108 137 152 145 151 156 160 201 205 212 259 156 192 198 204 209 209 206 208 216 228 232 215 215 223 224 180 131 156 166 171 179 186 192 198 203 205
126 117 106 111 103 97 85 74 125 137 142 152 155 168 249 207 211 180 65 277 245 212 192 216 217 223 232 232 235 226 246 258 224 138 156 175 180 187 194 201 204 205 209
136 122 116 117 108 103 113 106 94 106 126 131 130 143 223 183 133 201 199 258 289 280 124 265 242 217 224 232 214 223 226 226 223 169 167 181 190 194 199 204 208 210 213
141 125 125 127 123 124 125 149 125 137 135 120 120 132 178 137 116 264 241 230 285 281 212 245 277 256 231 235 221 221 223 210 194 188 179 180 189 200 202 203 208 214 217
131 126 135 141 130 129 121 93 75 98 90 104 120 119 128 104 199 263 257 235 272 270 236 225 253 272 287 266 246 233 216 197 183 194 199 196 190 195 201 204 209 214 218
132 131 134 131 134 139 142 144 154 75 65 89 111 114 131 162 210 249 255 260 261 244 275 278 137 285 274 274 264 231 212 199 194 202 199 199 198 187 188 193 200 206 213
138 136 139 143 134 139 146 153 159 147 163 199 150 117 125 212 275 296 234 227 288 257 300 326 303 269 255 266 287 285 239 210 195 191 196 197 193 193 191 181 187 204 210
146 145 150 155 146 149 159 165 163 173 190 176 170 131 132 309 312 308 331 239 280 308 338 314 295 286 274 254 293 298 262 217 201 185 181 185 189 190 176 168 176 181 190
151 152 154 156 154 163 163 160 167 164 191 172 144 123 139 206 311 279 292 307 287 273 252 278 285 286 281 263 282 298 298 283 303 200 172 180 191 179 174 177 174 169 177
159 160 165 162 160 165 163 163 157 129 288 78 105 114 166 220 228 285 345 311 318 311 274 246 274 276 291 289 264 270 290 307 317 273 217 190 169 188 185 173 168 169 176
162 161 157 153 156 161 166 168 182 177 185 211 198 171 198 214 227 207 320 322 320 328 328 284 287 285 286 284 286 282 267 288 290 300 292 252 191 199 183 192 179 164 154
162 160 152 149 151 155 174 171 185 191 195 209 203 151 229 209 203 223 161 287 301 312 320 320 335 324 315 309 308 306 297 269 244 246 285 288 257 225 199 203 178 172 164
158 153 146 144 150 157 165 168 180 187 179 246 239 193 252 235 194 261 152 222 285 292 297 305 307 313 307 309 314 312 298 283 269 248 256 269 265 236 206 207 193 178 161